| time (UTC) | temp F | wind direction | speed knots | gust knots | rain 1hr in | rain 24hr in | rain mn in | humidity % | barometer mb |
| 20260506014032 | 50 | 353 | 2.6 | 4.3 | 0.00 | 0.00 | 0.00 | 87 | 1010.0 |
| 20260506013520 | 50 | 2 | 2.6 | 5.2 | 0.00 | 0.00 | 0.00 | 87 | 1010.0 |
| 20260506013032 | 50 | 357 | 2.6 | 4.3 | 0.00 | 0.00 | 0.00 | 87 | 1010.0 |
| 20260506012532 | 50 | 10 | 1.7 | 4.3 | 0.00 | 0.00 | 0.00 | 86 | 1010.0 |
| 20260506012032 | 50 | 353 | 2.6 | 4.3 | 0.00 | 0.00 | 0.00 | 86 | 1010.0 |
| 20260506011532 | 50 | 358 | 1.7 | 5.2 | 0.00 | 0.00 | 0.00 | 86 | 1010.0 |
| 20260506011030 | 50 | 347 | 2.6 | 3.5 | 0.00 | 0.00 | 0.00 | 86 | 1010.0 |
| 20260506010531 | 50 | 351 | 1.7 | 3.5 | 0.00 | 0.00 | 0.00 | 86 | 1010.1 |
| 20260506010030 | 50 | 6 | 1.7 | 4.3 | 0.00 | 0.00 | 0.00 | 86 | 1010.1 |
| 20260506005522 | 50 | 358 | 2.6 | 4.3 | 0.00 | 0.00 | 0.00 | 85 | 1010.2 |
| 20260506005032 | 50 | 348 | 2.6 | 6.1 | 0.00 | 0.00 | 0.00 | 85 | 1010.2 |
| 20260506004532 | 50 | 14 | 2.6 | 5.2 | 0.00 | 0.00 | 0.00 | 85 | 1010.3 |
| 20260506004032 | 50 | 356 | 2.6 | 4.3 | 0.00 | 0.00 | 0.00 | 84 | 1010.3 |
| 20260506003532 | 50 | 347 | 2.6 | 4.3 | 0.00 | 0.00 | 0.00 | 84 | 1010.4 |
| 20260506003044 | 50 | 334 | 1.7 | 3.5 | 0.00 | 0.00 | 0.00 | 84 | 1010.5 |
| 20260506002544 | 50 | 350 | 2.6 | 4.3 | 0.00 | 0.00 | 0.00 | 84 | 1010.5 |
| 20260506002032 | 50 | 350 | 1.7 | 4.3 | 0.00 | 0.00 | 0.00 | 83 | 1010.5 |
| 20260506001524 | 50 | 360 | 2.6 | 4.3 | 0.00 | 0.00 | 0.00 | 83 | 1010.6 |
| 20260506001022 | 50 | 346 | 2.6 | 5.2 | 0.00 | 0.00 | 0.00 | 83 | 1010.6 |
| 20260506000530 | 50 | 357 | 1.7 | 5.2 | 0.00 | 0.00 | 0.00 | 83 | 1010.6 |
| 20260506000032 | 51 | 357 | 2.6 | 5.2 | 0.00 | 0.00 | 0.00 | 82 | 1010.6 |
| 20260505235532 | 51 | 12 | 1.7 | 4.3 | 0.00 | 0.00 | 0.00 | 82 | 1010.7 |
| 20260505235025 | 51 | 351 | 2.6 | 4.3 | 0.00 | 0.00 | 0.00 | 82 | 1010.7 |
| 20260505234530 | 51 | 347 | 1.7 | 4.3 | 0.00 | 0.00 | 0.00 | 82 | 1010.7 |
| 20260505234032 | 51 | 2 | 2.6 | 4.3 | 0.00 | 0.00 | 0.00 | 81 | 1010.7 |
| 20260505233525 | 51 | 12 | 2.6 | 5.2 | 0.00 | 0.01 | 0.00 | 81 | 1010.7 |
| 20260505233033 | 51 | 359 | 1.7 | 3.5 | 0.00 | 0.01 | 0.00 | 81 | 1010.7 |
| 20260505232532 | 51 | 353 | 1.7 | 5.2 | 0.00 | 0.01 | 0.00 | 81 | 1010.7 |
| 20260505232044 | 51 | 358 | 2.6 | 4.3 | 0.00 | 0.01 | 0.00 | 81 | 1010.8 |
| 20260505231532 | 51 | 358 | 2.6 | 6.1 | 0.00 | 0.03 | 0.00 | 81 | 1010.8 |
| 20260505231032 | 51 | 337 | 1.7 | 4.3 | 0.00 | 0.05 | 0.00 | 82 | 1010.9 |
| 20260505230532 | 51 | 15 | 1.7 | 3.5 | 0.00 | 0.07 | 0.00 | 82 | 1010.9 |
| 20260505230032 | 51 | 360 | 2.6 | 4.3 | 0.00 | 0.16 | 0.00 | 82 | 1010.9 |
| 20260505225532 | 50 | 355 | 2.6 | 5.2 | 0.00 | 0.20 | 0.00 | 82 | 1010.9 |
| 20260505225030 | 50 | 353 | 2.6 | 4.3 | 0.00 | 0.20 | 0.00 | 82 | 1010.9 |
| 20260505224532 | 50 | 356 | 1.7 | 3.5 | 0.00 | 0.21 | 0.00 | 83 | 1010.9 |
| 20260505224032 | 50 | 347 | 2.6 | 4.3 | 0.00 | 0.23 | 0.00 | 83 | 1011.0 |
| 20260505223524 | 50 | 356 | 1.7 | 4.3 | 0.00 | 0.25 | 0.00 | 83 | 1011.0 |
| 20260505223030 | 51 | 345 | 1.7 | 3.5 | 0.00 | 0.26 | 0.00 | 83 | 1011.1 |
| 20260505222532 | 51 | 11 | 2.6 | 5.2 | 0.00 | 0.27 | 0.00 | 83 | 1011.1 |
| 20260505222021 | 51 | 12 | 1.7 | 3.5 | 0.00 | 0.28 | 0.00 | 82 | 1011.1 |
| 20260505221532 | 51 | 350 | 2.6 | 5.2 | 0.00 | 0.31 | 0.00 | 82 | 1011.1 |
| 20260505221040 | 51 | 354 | 2.6 | 4.3 | 0.00 | 0.35 | 0.00 | 82 | 1011.1 |
| 20260505220544 | 51 | 350 | 2.6 | 4.3 | 0.00 | 0.39 | 0.00 | 82 | 1011.2 |
| 20260505220034 | 51 | 348 | 2.6 | 5.2 | 0.00 | 0.40 | 0.00 | 82 | 1011.2 |
| 20260505215532 | 51 | 2 | 1.7 | 4.3 | 0.00 | 0.40 | 0.40 | 82 | 1011.2 |
| 20260505215032 | 51 | 0 | 2.6 | 5.2 | 0.00 | 0.41 | 0.40 | 82 | 1011.2 |
| 20260505214530 | 51 | 1 | 1.7 | 4.3 | 0.00 | 0.43 | 0.40 | 82 | 1011.2 |
| 20260505214023 | 51 | 342 | 3.5 | 5.2 | 0.00 | 0.43 | 0.40 | 81 | 1011.2 |
| 20260505213532 | 51 | 343 | 2.6 | 4.3 | 0.00 | 0.43 | 0.40 | 82 | 1011.2 |
| 20260505213032 | 51 | 351 | 2.6 | 8.7 | 0.00 | 0.43 | 0.40 | 82 | 1011.2 |
| 20260505212530 | 51 | 4 | 2.6 | 4.3 | 0.00 | 0.43 | 0.40 | 82 | 1011.3 |
| 20260505212032 | 51 | 11 | 3.5 | 5.2 | 0.00 | 0.43 | 0.40 | 82 | 1011.3 |
| 20260505211532 | 51 | 358 | 2.6 | 4.3 | 0.00 | 0.43 | 0.40 | 82 | 1011.3 |
| 20260505211044 | 51 | 12 | 2.6 | 5.2 | 0.00 | 0.43 | 0.40 | 82 | 1011.3 |
| 20260505210532 | 51 | 345 | 2.6 | 5.2 | 0.00 | 0.43 | 0.40 | 82 | 1011.3 |
| 20260505210024 | 52 | 357 | 2.6 | 5.2 | 0.00 | 0.43 | 0.40 | 82 | 1011.3 |
| 20260505205532 | 52 | 0 | 3.5 | 5.2 | 0.00 | 0.43 | 0.40 | 82 | 1011.3 |
| 20260505205030 | 52 | 347 | 2.6 | 4.3 | 0.00 | 0.43 | 0.40 | 82 | 1011.3 |
| 20260505204542 | 52 | 357 | 3.5 | 5.2 | 0.00 | 0.43 | 0.40 | 82 | 1011.4 |
| 20260505204024 | 52 | 1 | 3.5 | 6.1 | 0.00 | 0.43 | 0.40 | 82 | 1011.4 |
| 20260505203530 | 52 | 11 | 2.6 | 5.2 | 0.00 | 0.43 | 0.40 | 82 | 1011.4 |
| 20260505203032 | 52 | 3 | 2.6 | 4.3 | 0.00 | 0.43 | 0.40 | 82 | 1011.4 |
| 20260505202531 | 52 | 13 | 3.5 | 5.2 | 0.00 | 0.43 | 0.40 | 82 | 1011.3 |
| 20260505202030 | 52 | 8 | 2.6 | 4.3 | 0.00 | 0.43 | 0.40 | 82 | 1011.3 |
| 20260505201533 | 52 | 4 | 2.6 | 5.2 | 0.00 | 0.43 | 0.40 | 82 | 1011.4 |
| 20260505201044 | 52 | 337 | 3.5 | 5.2 | 0.00 | 0.43 | 0.40 | 82 | 1011.3 |
| 20260505200532 | 52 | 11 | 2.6 | 5.2 | 0.00 | 0.43 | 0.40 | 81 | 1011.2 |
| 20260505200032 | 52 | 360 | 2.6 | 5.2 | 0.00 | 0.43 | 0.40 | 81 | 1011.2 |
| 20260505195531 | 53 | 349 | 3.5 | 6.1 | 0.00 | 0.43 | 0.40 | 81 | 1011.2 |
| 20260505195044 | 53 | 344 | 2.6 | 5.2 | 0.00 | 0.43 | 0.40 | 82 | 1011.2 |
| 20260505194532 | 53 | 5 | 3.5 | 7.8 | 0.00 | 0.43 | 0.40 | 81 | 1011.1 |
| 20260505194035 | 53 | 359 | 2.6 | 7.0 | 0.00 | 0.43 | 0.40 | 81 | 1011.1 |
| 20260505193531 | 53 | 10 | 1.7 | 4.3 | 0.00 | 0.43 | 0.40 | 81 | 1011.1 |
| 20260505193044 | 53 | 350 | 3.5 | 4.3 | 0.00 | 0.43 | 0.40 | 80 | 1011.1 |
| 20260505192532 | 53 | 8 | 2.6 | 5.2 | 0.00 | 0.43 | 0.40 | 80 | 1010.9 |
| 20260505192031 | 53 | 8 | 3.5 | 5.2 | 0.00 | 0.43 | 0.40 | 80 | 1010.9 |
| 20260505191533 | 53 | 12 | 3.5 | 8.7 | 0.00 | 0.43 | 0.40 | 80 | 1010.9 |
| 20260505191033 | 54 | 357 | 3.5 | 7.8 | 0.00 | 0.43 | 0.40 | 79 | 1010.9 |
| 20260505190524 | 54 | 351 | 3.5 | 6.1 | 0.00 | 0.43 | 0.40 | 79 | 1010.8 |
| 20260505190032 | 54 | 0 | 2.6 | 7.0 | 0.00 | 0.43 | 0.40 | 78 | 1010.8 |
| 20260505185531 | 54 | 0 | 2.6 | 7.0 | 0.00 | 0.43 | 0.40 | 78 | 1010.7 |
| 20260505185031 | 54 | 350 | 2.6 | 5.2 | 0.00 | 0.43 | 0.40 | 77 | 1010.7 |
| 20260505184527 | 54 | 347 | 3.5 | 6.1 | 0.00 | 0.43 | 0.40 | 77 | 1010.6 |
| 20260505184031 | 54 | 359 | 3.5 | 8.7 | 0.00 | 0.43 | 0.40 | 77 | 1010.6 |
| 20260505183533 | 55 | 341 | 4.3 | 7.8 | 0.00 | 0.43 | 0.40 | 77 | 1010.6 |
| 20260505183044 | 55 | 357 | 4.3 | 7.8 | 0.00 | 0.43 | 0.40 | 77 | 1010.6 |
| 20260505182523 | 55 | 1 | 3.5 | 5.2 | 0.00 | 0.43 | 0.40 | 77 | 1010.5 |
| 20260505182032 | 55 | 14 | 3.5 | 7.8 | 0.00 | 0.43 | 0.40 | 77 | 1010.5 |
| 20260505181532 | 55 | 6 | 4.3 | 7.8 | 0.00 | 0.43 | 0.40 | 77 | 1010.5 |
| 20260505181031 | 55 | 348 | 3.5 | 5.2 | 0.00 | 0.43 | 0.40 | 77 | 1010.5 |
| 20260505180530 | 55 | 347 | 3.5 | 6.1 | 0.00 | 0.43 | 0.40 | 76 | 1010.5 |
| 20260505180031 | 56 | 1 | 3.5 | 9.6 | 0.00 | 0.43 | 0.40 | 76 | 1010.5 |
| 20260505175535 | 56 | 353 | 3.5 | 8.7 | 0.00 | 0.43 | 0.40 | 76 | 1010.4 |
| 20260505175021 | 56 | 355 | 4.3 | 8.7 | 0.00 | 0.43 | 0.40 | 77 | 1010.4 |
| 20260505174531 | 56 | 354 | 2.6 | 5.2 | 0.00 | 0.43 | 0.40 | 77 | 1010.4 |
| 20260505174032 | 56 | 2 | 3.5 | 7.8 | 0.00 | 0.43 | 0.40 | 77 | 1010.3 |
| 20260505173532 | 56 | 352 | 3.5 | 7.0 | 0.00 | 0.43 | 0.40 | 77 | 1010.4 |
| 20260505173024 | 56 | 345 | 3.5 | 5.2 | 0.00 | 0.43 | 0.40 | 76 | 1010.4 |
| 20260505172539 | 56 | 356 | 3.5 | 7.0 | 0.00 | 0.43 | 0.40 | 76 | 1010.4 |
| 20260505172031 | 56 | 15 | 3.5 | 7.0 | 0.00 | 0.43 | 0.40 | 76 | 1010.4 |
| 20260505171531 | 57 | 350 | 3.5 | 7.8 | 0.00 | 0.43 | 0.40 | 77 | 1010.4 |
| 20260505171055 | 57 | 359 | 3.5 | 7.8 | 0.00 | 0.43 | 0.40 | 77 | 1010.4 |
| 20260505170526 | 57 | 7 | 3.5 | 6.1 | 0.00 | 0.43 | 0.40 | 76 | 1010.5 |
| 20260505170033 | 58 | 343 | 2.6 | 4.3 | 0.00 | 0.43 | 0.40 | 76 | 1010.5 |
| 20260505165531 | 58 | 0 | 2.6 | 5.2 | 0.00 | 0.43 | 0.40 | 77 | 1010.5 |
| 20260505165031 | 58 | 357 | 2.6 | 4.3 | 0.00 | 0.43 | 0.40 | 77 | 1010.6 |
| 20260505164530 | 57 | 359 | 2.6 | 4.3 | 0.00 | 0.43 | 0.40 | 77 | 1010.6 |
| 20260505164031 | 57 | 354 | 3.5 | 5.2 | 0.00 | 0.43 | 0.40 | 78 | 1010.6 |
| 20260505163531 | 57 | 10 | 2.6 | 5.2 | 0.00 | 0.43 | 0.40 | 79 | 1010.6 |
| 20260505163020 | 58 | 350 | 3.5 | 7.8 | 0.00 | 0.43 | 0.40 | 79 | 1010.6 |
| 20260505162530 | 58 | 339 | 2.6 | 6.1 | 0.00 | 0.43 | 0.40 | 78 | 1010.6 |
| 20260505162031 | 58 | 357 | 2.6 | 6.1 | 0.00 | 0.43 | 0.40 | 78 | 1010.6 |
| 20260505161523 | 58 | 313 | 1.7 | 4.3 | 0.00 | 0.43 | 0.40 | 78 | 1010.7 |
| 20260505161036 | 58 | 341 | 2.6 | 4.3 | 0.00 | 0.43 | 0.40 | 79 | 1010.7 |
| 20260505160543 | 58 | 359 | 2.6 | 5.2 | 0.00 | 0.43 | 0.40 | 79 | 1010.8 |
| 20260505153031 | 59 | 342 | 2.6 | 5.2 | 0.00 | 0.43 | 0.40 | 76 | 1010.8 |
| 20260505152531 | 59 | 348 | 2.6 | 5.2 | 0.00 | 0.43 | 0.40 | 77 | 1010.9 |
| 20260505152031 | 58 | 349 | 2.6 | 4.3 | 0.00 | 0.43 | 0.40 | 77 | 1011.0 |
| 20260505151531 | 58 | 353 | 1.7 | 4.3 | 0.00 | 0.43 | 0.40 | 79 | 1011.0 |
| 20260505151023 | 58 | 359 | 2.6 | 5.2 | 0.00 | 0.43 | 0.40 | 79 | 1011.1 |
| 20260505150531 | 57 | 8 | 2.6 | 4.3 | 0.00 | 0.43 | 0.40 | 79 | 1011.1 |
| 20260505140543 | 55 | 356 | 3.5 | 5.2 | 0.00 | 0.43 | 0.40 | 85 | 1011.5 |
| 20260505125031 | 54 | 3 | 1.7 | 4.3 | 0.00 | 0.43 | 0.40 | 87 | 1011.9 |
| 20260505124526 | 54 | 356 | 1.7 | 4.3 | 0.00 | 0.43 | 0.40 | 87 | 1011.9 |
| 20260505124031 | 54 | 348 | 2.6 | 4.3 | 0.00 | 0.43 | 0.40 | 87 | 1011.9 |
| 20260505123524 | 54 | 350 | 2.6 | 4.3 | 0.00 | 0.43 | 0.40 | 87 | 1011.9 |
| 20260505123031 | 54 | 338 | 2.6 | 5.2 | 0.00 | 0.43 | 0.40 | 87 | 1012.0 |
| 20260505122531 | 54 | 338 | 1.7 | 4.3 | 0.00 | 0.43 | 0.40 | 86 | 1012.0 |
| 20260505122030 | 54 | 343 | 2.6 | 5.2 | 0.00 | 0.43 | 0.40 | 86 | 1012.0 |
| 20260505121531 | 54 | 347 | 2.6 | 4.3 | 0.00 | 0.43 | 0.40 | 87 | 1012.0 |
| 20260505121043 | 54 | 9 | 1.7 | 3.5 | 0.00 | 0.43 | 0.40 | 87 | 1012.0 |
| 20260505120530 | 54 | 254 | 0.9 | 3.5 | 0.00 | 0.43 | 0.40 | 87 | 1012.1 |
| 20260505120031 | 54 | 350 | 2.6 | 5.2 | 0.00 | 0.43 | 0.40 | 87 | 1012.1 |
| 20260505115524 | 54 | 354 | 1.7 | 3.5 | 0.00 | 0.43 | 0.40 | 87 | 1012.1 |
| 20260505115031 | 54 | 336 | 1.7 | 4.3 | 0.00 | 0.43 | 0.40 | 87 | 1012.1 |
| 20260505114531 | 54 | 345 | 2.6 | 4.3 | 0.00 | 0.43 | 0.40 | 87 | 1012.1 |
| 20260505114043 | 54 | 3 | 2.6 | 5.2 | 0.00 | 0.43 | 0.40 | 87 | 1012.1 |
| 20260505113531 | 54 | 354 | 2.6 | 4.3 | 0.00 | 0.43 | 0.40 | 87 | 1012.1 |
| 20260505113042 | 53 | 354 | 2.6 | 4.3 | 0.00 | 0.43 | 0.40 | 88 | 1012.2 |
| 20260505112531 | 53 | 338 | 2.6 | 4.3 | 0.00 | 0.43 | 0.40 | 88 | 1012.2 |
| 20260505112031 | 53 | 348 | 2.6 | 4.3 | 0.00 | 0.43 | 0.40 | 88 | 1012.2 |
| 20260505111532 | 53 | 7 | 1.7 | 4.3 | 0.00 | 0.43 | 0.40 | 89 | 1012.3 |
| 20260505111032 | 53 | 1 | 3.5 | 6.1 | 0.00 | 0.43 | 0.40 | 88 | 1012.3 |
| 20260505110543 | 53 | 343 | 2.6 | 4.3 | 0.00 | 0.43 | 0.40 | 88 | 1012.3 |
| 20260505102031 | 53 | 358 | 3.5 | 4.3 | 0.00 | 0.43 | 0.40 | 89 | 1012.4 |
| 20260505101530 | 53 | 351 | 2.6 | 5.2 | 0.00 | 0.43 | 0.40 | 89 | 1012.5 |
| 20260505101031 | 52 | 3 | 2.6 | 5.2 | 0.00 | 0.43 | 0.40 | 90 | 1012.5 |
| 20260505100530 | 52 | 339 | 2.6 | 5.2 | 0.00 | 0.43 | 0.40 | 90 | 1012.6 |
| 20260505100031 | 52 | 345 | 2.6 | 4.3 | 0.00 | 0.43 | 0.40 | 91 | 1012.5 |
| 20260505095523 | 52 | 0 | 2.6 | 6.1 | 0.00 | 0.43 | 0.40 | 91 | 1012.5 |
| 20260505095031 | 52 | 355 | 2.6 | 5.2 | 0.00 | 0.43 | 0.40 | 91 | 1012.5 |
| 20260505094531 | 52 | 332 | 2.6 | 5.2 | 0.00 | 0.43 | 0.40 | 91 | 1012.5 |
| 20260505094031 | 52 | 8 | 3.5 | 4.3 | 0.00 | 0.43 | 0.40 | 91 | 1012.6 |
| 20260505093524 | 52 | 7 | 1.7 | 5.2 | 0.00 | 0.43 | 0.40 | 91 | 1012.6 |
| 20260505093031 | 52 | 5 | 3.5 | 5.2 | 0.00 | 0.43 | 0.40 | 91 | 1012.6 |
| 20260505092532 | 52 | 4 | 3.5 | 5.2 | 0.00 | 0.43 | 0.40 | 91 | 1012.7 |
| 20260505092023 | 52 | 21 | 2.6 | 5.2 | 0.00 | 0.43 | 0.40 | 91 | 1012.6 |
| 20260505091531 | 52 | 349 | 2.6 | 5.2 | 0.00 | 0.43 | 0.40 | 92 | 1012.7 |
| 20260505091033 | 51 | 354 | 3.5 | 7.0 | 0.00 | 0.43 | 0.40 | 93 | 1012.7 |
| 20260505090543 | 51 | 9 | 1.7 | 4.3 | 0.00 | 0.43 | 0.40 | 93 | 1012.7 |
| 20260505090031 | 51 | 3 | 2.6 | 7.0 | 0.00 | 0.43 | 0.40 | 94 | 1012.7 |
| 20260505085532 | 51 | 351 | 2.6 | 4.3 | 0.00 | 0.43 | 0.40 | 94 | 1012.7 |
| 20260505085046 | 51 | 6 | 2.6 | 4.3 | 0.00 | 0.43 | 0.40 | 94 | 1012.7 |
| 20260505084543 | 51 | 27 | 0.9 | 3.5 | 0.00 | 0.43 | 0.40 | 94 | 1012.8 |
| 20260505084024 | 51 | 359 | 1.7 | 4.3 | 0.00 | 0.43 | 0.40 | 94 | 1012.8 |
| 20260505083535 | 51 | 4 | 1.7 | 4.3 | 0.00 | 0.43 | 0.40 | 94 | 1012.8 |
| 20260505083031 | 51 | 360 | 2.6 | 4.3 | 0.00 | 0.43 | 0.40 | 94 | 1012.8 |
| 20260505082531 | 51 | 345 | 1.7 | 4.3 | 0.00 | 0.43 | 0.40 | 94 | 1012.8 |
| 20260505082023 | 51 | 345 | 1.7 | 4.3 | 0.00 | 0.43 | 0.40 | 95 | 1012.8 |
| 20260505081531 | 51 | 355 | 1.7 | 4.3 | 0.00 | 0.43 | 0.40 | 95 | 1012.8 |
| 20260505081031 | 51 | 7 | 2.6 | 4.3 | 0.00 | 0.43 | 0.40 | 95 | 1012.8 |
| 20260505080531 | 51 | 14 | 1.7 | 4.3 | 0.00 | 0.43 | 0.40 | 95 | 1012.8 |
| 20260505080026 | 51 | 11 | 1.7 | 4.3 | 0.00 | 0.43 | 0.40 | 95 | 1012.8 |
| 20260505075534 | 51 | 5 | 1.7 | 3.5 | 0.00 | 0.43 | 0.40 | 95 | 1012.7 |
| 20260505075031 | 51 | 20 | 2.6 | 4.3 | 0.00 | 0.43 | 0.40 | 96 | 1012.7 |
| 20260505074530 | 50 | 349 | 1.7 | 6.1 | 0.00 | 0.43 | 0.40 | 96 | 1012.7 |
| 20260505074031 | 50 | 356 | 1.7 | 6.1 | 0.00 | 0.43 | 0.40 | 96 | 1012.6 |
| 20260505073531 | 50 | 350 | 2.6 | 7.0 | 0.00 | 0.43 | 0.40 | 97 | 1012.5 |
| 20260505073031 | 50 | 9 | 0.9 | 1.7 | 0.00 | 0.43 | 0.40 | 97 | 1012.6 |
| 20260505072531 | 50 | 1 | 0.9 | 5.2 | 0.00 | 0.43 | 0.40 | 97 | 1012.6 |
| 20260505072031 | 50 | 4 | 1.7 | 4.3 | 0.00 | 0.43 | 0.40 | 97 | 1012.6 |
| 20260505071535 | 50 | 343 | 2.6 | 4.3 | 0.00 | 0.43 | 0.40 | 97 | 1012.6 |
| 20260505071043 | 50 | 350 | 1.7 | 3.5 | 0.00 | 0.43 | 0.40 | 97 | 1012.6 |
| 20260505070530 | 50 | 2 | 1.7 | 4.3 | 0.00 | 0.43 | 0.40 | 98 | 1012.7 |
| 20260505070034 | 50 | 0 | 0.9 | 3.5 | 0.00 | 0.43 | 0.40 | 98 | 1012.8 |
| 20260505065533 | 50 | 354 | 1.7 | 4.3 | 0.00 | 0.43 | 0.40 | 98 | 1012.7 |
| 20260505065031 | 50 | 352 | 1.7 | 4.3 | 0.00 | 0.43 | 0.40 | 98 | 1012.7 |
| 20260505064521 | 50 | 5 | 1.7 | 4.3 | 0.00 | 0.43 | 0.40 | 98 | 1012.7 |
| 20260505064039 | 50 | 340 | 1.7 | 3.5 | 0.00 | 0.43 | 0.40 | 98 | 1012.8 |
| 20260505063534 | 50 | 358 | 2.6 | 6.1 | 0.00 | 0.43 | 0.40 | 98 | 1012.8 |
| 20260505063031 | 50 | 9 | 2.6 | 5.2 | 0.00 | 0.43 | 0.40 | 98 | 1012.7 |
| 20260505062524 | 50 | 1 | 2.6 | 10.4 | 0.00 | 0.43 | 0.40 | 98 | 1012.7 |
| 20260505062032 | 50 | 12 | 1.7 | 4.3 | 0.00 | 0.43 | 0.40 | 98 | 1012.7 |
| 20260505061530 | 50 | 13 | 1.7 | 3.5 | 0.00 | 0.43 | 0.40 | 98 | 1012.8 |
| 20260505061029 | 50 | 6 | 2.6 | 6.1 | 0.00 | 0.43 | 0.40 | 98 | 1012.8 |
| 20260505060531 | 50 | 352 | 2.6 | 5.2 | 0.00 | 0.43 | 0.40 | 98 | 1012.9 |
| 20260505060033 | 50 | 0 | 2.6 | 5.2 | 0.00 | 0.43 | 0.40 | 98 | 1012.9 |
| 20260505055529 | 50 | 356 | 2.6 | 5.2 | 0.00 | 0.43 | 0.40 | 98 | 1012.9 |
| 20260505055043 | 51 | 350 | 2.6 | 6.1 | 0.00 | 0.43 | 0.40 | 98 | 1012.9 |
| 20260505054542 | 51 | 354 | 2.6 | 5.2 | 0.00 | 0.43 | 0.40 | 98 | 1012.9 |
| 20260505054033 | 51 | 351 | 1.7 | 3.5 | 0.00 | 0.43 | 0.40 | 98 | 1013.0 |
| 20260505053533 | 51 | 10 | 1.7 | 4.3 | 0.00 | 0.43 | 0.40 | 98 | 1012.9 |
| 20260505053029 | 51 | 329 | 0.9 | 2.6 | 0.00 | 0.43 | 0.40 | 97 | 1012.9 |
| 20260505052530 | 51 | 337 | 0.9 | 3.5 | 0.00 | 0.43 | 0.40 | 97 | 1012.9 |
| 20260505052033 | 51 | 355 | 1.7 | 5.2 | 0.00 | 0.43 | 0.40 | 97 | 1012.9 |
| 20260505051535 | 51 | 0 | 1.7 | 4.3 | 0.00 | 0.43 | 0.40 | 96 | 1012.9 |
| 20260505051022 | 51 | 8 | 0.9 | 4.3 | 0.00 | 0.43 | 0.40 | 96 | 1012.9 |
| 20260505050536 | 51 | 339 | 0.9 | 3.5 | 0.00 | 0.43 | 0.40 | 96 | 1012.8 |
| 20260505041532 | 51 | 351 | 0.9 | 4.3 | 0.00 | 0.43 | 0.40 | 96 | 1012.5 |
| 20260505041030 | 51 | 341 | 0.9 | 3.5 | 0.00 | 0.43 | 0.40 | 96 | 1012.6 |
| 20260505040530 | 51 | 346 | 2.6 | 4.3 | 0.00 | 0.43 | 0.40 | 96 | 1012.6 |
| 20260505040030 | 51 | 359 | 0.9 | 4.3 | 0.00 | 0.43 | 0.40 | 96 | 1012.6 |
| 20260505035532 | 51 | 0 | 2.6 | 5.2 | 0.00 | 0.43 | 0.40 | 96 | 1012.6 |
| 20260505035029 | 51 | 34 | 0.9 | 3.5 | 0.00 | 0.43 | 0.40 | 96 | 1012.6 |
| 20260505034530 | 51 | 16 | 1.7 | 3.5 | 0.00 | 0.43 | 0.40 | 96 | 1012.6 |
| 20260505034045 | 51 | 4 | 0.9 | 4.3 | 0.00 | 0.43 | 0.40 | 96 | 1012.6 |
| 20260505033532 | 51 | 353 | 0.9 | 3.5 | 0.00 | 0.43 | 0.40 | 96 | 1012.7 |
| 20260505033029 | 51 | 358 | 1.7 | 4.3 | 0.00 | 0.43 | 0.40 | 96 | 1012.7 |
| 20260505032531 | 51 | 345 | 2.6 | 6.1 | 0.00 | 0.43 | 0.40 | 96 | 1012.7 |
| 20260505032031 | 51 | 8 | 1.7 | 4.3 | 0.00 | 0.43 | 0.40 | 96 | 1012.8 |
| 20260505031532 | 51 | 0 | 1.7 | 6.1 | 0.00 | 0.43 | 0.40 | 96 | 1012.8 |
| 20260505031030 | 51 | 352 | 1.7 | 3.5 | 0.00 | 0.43 | 0.40 | 96 | 1012.9 |
| 20260505030531 | 51 | 356 | 0.9 | 4.3 | 0.00 | 0.43 | 0.40 | 96 | 1012.9 |
| 20260505030032 | 51 | 29 | 0.9 | 4.3 | 0.00 | 0.43 | 0.40 | 96 | 1013.0 |
| 20260505025530 | 51 | 349 | 1.7 | 4.3 | 0.00 | 0.43 | 0.40 | 96 | 1013.0 |
| 20260505025023 | 51 | 353 | 2.6 | 5.2 | 0.00 | 0.43 | 0.40 | 96 | 1012.9 |
| 20260505024530 | 51 | 356 | 3.5 | 7.8 | 0.00 | 0.43 | 0.40 | 96 | 1013.0 |
| 20260505024031 | 51 | 357 | 3.5 | 6.1 | 0.00 | 0.43 | 0.40 | 96 | 1013.0 |
| 20260505023531 | 51 | 347 | 2.6 | 6.1 | 0.00 | 0.43 | 0.40 | 96 | 1012.9 |
| 20260505023045 | 51 | 8 | 2.6 | 4.3 | 0.00 | 0.43 | 0.40 | 96 | 1012.9 |
| 20260505022542 | 51 | 344 | 2.6 | 5.2 | 0.00 | 0.43 | 0.40 | 96 | 1012.9 |
| 20260505022030 | 51 | 346 | 2.6 | 5.2 | 0.00 | 0.43 | 0.40 | 96 | 1013.0 |
| 20260505021535 | 52 | 352 | 2.6 | 6.1 | 0.00 | 0.43 | 0.40 | 96 | 1012.9 |
| 20260505021030 | 52 | 350 | 1.7 | 4.3 | 0.00 | 0.43 | 0.40 | 96 | 1012.9 |
| 20260505020543 | 52 | 0 | 2.6 | 5.2 | 0.00 | 0.43 | 0.40 | 96 | 1012.9 |
| 20260505020023 | 52 | 352 | 2.6 | 6.1 | 0.00 | 0.43 | 0.40 | 96 | 1012.8 |
| 20260505015530 | 52 | 354 | 1.7 | 3.5 | 0.00 | 0.43 | 0.40 | 96 | 1012.9 |
| 20260505015030 | 52 | 6 | 2.6 | 5.2 | 0.00 | 0.43 | 0.40 | 96 | 1012.9 |
| 20260505014542 | 52 | 5 | 3.5 | 5.2 | 0.00 | 0.43 | 0.40 | 96 | 1013.0 |